Weather History for KELO - April, 2014

Change the Weather History Date:

Wednesday, April 9, 2014

  Actual Average Record
Temperature  
Mean Temperature 40 °F -  
Max Temperature 55 °F 43 °F 68 °F (2005)
Min Temperature 24 °F 23 °F 0 °F (1997)
Degree Days  
Heating Degree Days 26    
Moisture  
Dew Point 26 °F    
Average Humidity 56    
Maximum Humidity 93    
Minimum Humidity 33    
Precipitation  
Precipitation 0.08 in - - ()
Sea Level Pressure  
Sea Level Pressure 29.60 in    
Wind  
Wind Speed 6 mph (SSW)    
Max Wind Speed 17 mph    
Max Gust Speed 25 mph    
Visibility 10 miles    
Events Rain    
Averages and records for this station are not official NWS values.
T = Trace of Precipitation, MM = Missing Value Source: NWS Daily Summary

Daily Weather History Graph

Daily Weather History Graph

Search for Another Location

Airport or City:

Trip Planner

Search our weather history database for the weather conditions in past years. The results will help you decide how hot, cold, wet, or windy it might be!

Date:

Astronomy

Apr. 09, 2014 Rise Set
Actual Time 6:29 AM CDT 7:48 PM CDT
Civil Twilight 5:57 AM CDT 8:20 PM CDT
Nautical Twilight 5:19 AM CDT 8:59 PM CDT
Astronomical Twilight 4:38 AM CDT 9:41 PM CDT
Moon 2:15 PM CDT (4/9) 3:41 AM CDT (4/9)
Length of Visible Light 14h 23m
Length of Day
13h 19m
Waxing Gibbous, 72% of the Moon is Illuminated
Apr 9
Waxing Gibbous
Apr 15
Full
Apr 22
Last Quarter
Apr 29
New
May 6
First Quarter

Hourly Weather History & Observations

Time (CDT) Temp. Windchill Dew Point Humidity Pressure Visibility Wind Dir Wind Speed Gust Speed Precip Events Conditions
12:13 AM 26.6 °F - 19.4 °F 74% 29.88 in 10.0 mi Calm Calm - N/A   Clear
12:32 AM 26.6 °F - 19.4 °F 74% 29.87 in 10.0 mi Calm Calm - N/A   Clear
12:53 AM 24.8 °F - 19.4 °F 80% 29.87 in 10.0 mi Calm Calm - N/A   Clear
1:13 AM 24.8 °F - 19.4 °F 80% 29.87 in 10.0 mi Calm Calm - N/A   Clear
1:32 AM 24.8 °F - 19.4 °F 80% 29.87 in 10.0 mi Calm Calm - N/A   Clear
1:53 AM 24.8 °F - 19.4 °F 80% 29.87 in 10.0 mi Calm Calm - N/A   Clear
2:13 AM 24.8 °F - 19.4 °F 80% 29.86 in 10.0 mi Calm Calm - N/A   Clear
2:32 AM 26.6 °F - 19.4 °F 74% 29.84 in 10.0 mi Calm Calm - N/A   Mostly Cloudy
2:53 AM 26.6 °F - 21.2 °F 80% 29.83 in 10.0 mi Calm Calm - N/A   Overcast
3:12 AM 26.6 °F 22.6 °F 21.2 °F 80% 29.83 in 10.0 mi SSW 3.5 mph - N/A   Overcast
3:33 AM 26.6 °F 22.6 °F 21.2 °F 80% 29.82 in 10.0 mi SE 3.5 mph - N/A   Scattered Clouds
3:53 AM 26.6 °F - 21.2 °F 80% 29.81 in 10.0 mi Calm Calm - N/A   Mostly Cloudy
4:12 AM 26.6 °F - 21.2 °F 80% 29.81 in 10.0 mi Calm Calm - N/A   Overcast
4:33 AM 30.2 °F 26.7 °F 21.2 °F 69% 29.80 in 10.0 mi SSE 3.5 mph - N/A   Mostly Cloudy
4:53 AM 32.0 °F 27.5 °F 21.2 °F 64% 29.80 in 10.0 mi South 4.6 mph - N/A   Scattered Clouds
5:12 AM 32.0 °F - 21.2 °F 64% 29.79 in 10.0 mi Calm Calm - N/A   Scattered Clouds
5:33 AM 32.0 °F 27.5 °F 21.2 °F 64% 29.78 in 10.0 mi South 4.6 mph - N/A   Mostly Cloudy
5:53 AM 32.0 °F 27.5 °F 21.2 °F 64% 29.77 in 10.0 mi South 4.6 mph - N/A   Scattered Clouds
6:12 AM 32.0 °F 27.5 °F 21.2 °F 64% 29.76 in 10.0 mi South 4.6 mph - N/A   Scattered Clouds
6:33 AM 33.8 °F 28.6 °F 21.2 °F 60% 29.76 in 10.0 mi South 5.8 mph - N/A   Mostly Cloudy
6:53 AM 35.6 °F 29.2 °F 21.2 °F 56% 29.75 in 10.0 mi South 8.1 mph - N/A   Overcast
7:12 AM 35.6 °F 29.2 °F 21.2 °F 56% 29.74 in 10.0 mi South 8.1 mph - N/A   Mostly Cloudy
7:33 AM 35.6 °F 28.6 °F 21.2 °F 56% 29.73 in 10.0 mi South 9.2 mph - N/A   Mostly Cloudy
7:53 AM 35.6 °F 29.2 °F 23.0 °F 60% 29.72 in 10.0 mi South 8.1 mph - N/A   Overcast
8:12 AM 37.4 °F 30.8 °F 24.8 °F 60% 29.71 in 10.0 mi South 9.2 mph - N/A   Mostly Cloudy
8:33 AM 37.4 °F 32.1 °F 24.8 °F 60% 29.69 in 10.0 mi South 6.9 mph - N/A   Overcast
8:53 AM 39.2 °F 33.0 °F 24.8 °F 56% 29.68 in 10.0 mi South 9.2 mph - N/A   Mostly Cloudy
9:13 AM 39.2 °F 32.0 °F 24.8 °F 56% 29.66 in 10.0 mi South 11.5 mph 18.4 mph N/A   Scattered Clouds
9:33 AM 41.0 °F 33.9 °F 24.8 °F 53% 29.65 in 10.0 mi South 12.7 mph 19.6 mph N/A   Scattered Clouds
9:53 AM 42.8 °F 35.8 °F 24.8 °F 49% 29.64 in 10.0 mi South 13.8 mph 20.7 mph N/A   Scattered Clouds
10:13 AM 42.8 °F 37.0 °F 24.8 °F 49% 29.63 in 10.0 mi SSW 10.4 mph 19.6 mph N/A   Clear
10:32 AM 46.4 °F 41.5 °F 24.8 °F 43% 29.62 in 10.0 mi SW 10.4 mph 16.1 mph N/A   Clear
10:53 AM 48.2 °F - 24.8 °F 40% 29.61 in 10.0 mi SSW 16.1 mph 24.2 mph N/A   Scattered Clouds
11:13 AM 46.4 °F 40.4 °F 24.8 °F 43% 29.60 in 10.0 mi SSW 13.8 mph 25.3 mph N/A   Scattered Clouds
11:32 AM 48.2 °F - 24.8 °F 40% 29.59 in 10.0 mi SSW 16.1 mph 23.0 mph N/A   Scattered Clouds
11:53 AM 48.2 °F - 24.8 °F 40% 29.58 in 10.0 mi South 10.4 mph 16.1 mph N/A   Scattered Clouds
12:13 PM 48.2 °F - 24.8 °F 40% 29.57 in 10.0 mi SW 10.4 mph 20.7 mph N/A   Clear
12:32 PM 48.2 °F - 24.8 °F 40% 29.56 in 10.0 mi SW 12.7 mph 18.4 mph N/A   Clear
12:53 PM 50.0 °F - 24.8 °F 37% 29.55 in 10.0 mi SSW 17.3 mph 23.0 mph N/A   Clear
1:13 PM 51.8 °F - 24.8 °F 35% 29.54 in 10.0 mi SW 12.7 mph 20.7 mph N/A   Clear
1:32 PM 51.8 °F - 24.8 °F 35% 29.53 in 10.0 mi SW 15.0 mph 20.7 mph N/A   Clear
1:53 PM 51.8 °F - 24.8 °F 35% 29.52 in 10.0 mi SW 12.7 mph 20.7 mph N/A   Clear
2:13 PM 53.6 °F - 26.6 °F 35% 29.51 in 10.0 mi SSW 11.5 mph - N/A   Clear
2:32 PM 53.6 °F - 26.6 °F 35% 29.50 in 10.0 mi SSW 16.1 mph 21.9 mph N/A   Clear
2:53 PM 53.6 °F - 26.6 °F 35% 29.50 in 10.0 mi SSW 15.0 mph 20.7 mph N/A   Clear
3:13 PM 53.6 °F - 26.6 °F 35% 29.49 in 10.0 mi SW 9.2 mph 21.9 mph N/A   Clear
3:32 PM 53.6 °F - 26.6 °F 35% 29.48 in 10.0 mi SSW 11.5 mph 20.7 mph N/A   Clear
3:53 PM 53.6 °F - 26.6 °F 35% 29.47 in 10.0 mi SSW 17.3 mph - N/A   Clear
4:13 PM 53.6 °F - 26.6 °F 35% 29.46 in 10.0 mi SSW 15.0 mph - N/A   Clear
4:32 PM 53.6 °F - 26.6 °F 35% 29.46 in 10.0 mi SW 11.5 mph 18.4 mph N/A   Clear
4:53 PM 53.6 °F - 26.6 °F 35% 29.45 in 10.0 mi SSW 13.8 mph 23.0 mph N/A   Clear
5:13 PM 55.4 °F - 26.6 °F 33% 29.44 in 10.0 mi SSW 16.1 mph 23.0 mph N/A   Clear
5:32 PM 55.4 °F - 26.6 °F 33% 29.44 in 10.0 mi SSW 13.8 mph 20.7 mph N/A   Clear
5:53 PM 53.6 °F - 26.6 °F 35% 29.43 in 10.0 mi SSW 15.0 mph 19.6 mph N/A   Clear
6:12 PM 53.6 °F - 28.4 °F 38% 29.42 in 10.0 mi SSW 9.2 mph 18.4 mph N/A   Clear
6:33 PM 53.6 °F - 28.4 °F 38% 29.42 in 10.0 mi South 9.2 mph 16.1 mph N/A   Clear
6:53 PM 51.8 °F - 28.4 °F 41% 29.42 in 10.0 mi SSW 8.1 mph - N/A   Clear
7:12 PM 51.8 °F - 28.4 °F 41% 29.41 in 10.0 mi SSW 8.1 mph - N/A   Clear
7:33 PM 51.8 °F - 28.4 °F 41% 29.40 in 10.0 mi SSW 9.2 mph 16.1 mph N/A   Clear
7:53 PM 51.8 °F - 30.2 °F 44% 29.39 in 10.0 mi SSW 9.2 mph - N/A   Clear
8:12 PM 50.0 °F - 30.2 °F 47% 29.39 in 10.0 mi SSW 8.1 mph - N/A   Clear
8:33 PM 50.0 °F - 30.2 °F 47% 29.39 in 10.0 mi SW 8.1 mph - N/A   Clear
8:53 PM 48.2 °F - 30.2 °F 50% 29.39 in 10.0 mi SW 5.8 mph - N/A   Clear
9:12 PM 48.2 °F - 32.0 °F 54% 29.39 in 10.0 mi SW 5.8 mph - N/A   Clear
9:33 PM 48.2 °F - 32.0 °F 54% 29.40 in 10.0 mi SW 5.8 mph - N/A   Clear
9:53 PM 46.4 °F 43.5 °F 35.6 °F 66% 29.41 in 10.0 mi SW 5.8 mph - N/A Rain Rain
10:12 PM 44.6 °F 39.7 °F 39.2 °F 81% 29.42 in 10.0 mi WSW 9.2 mph 16.1 mph 0.04 in Rain Rain
10:33 PM 44.6 °F 40.7 °F 41.0 °F 87% 29.39 in 10.0 mi SSW 6.9 mph - 0.08 in Rain Light Rain
10:53 PM 44.6 °F 40.7 °F 41.0 °F 87% 29.39 in 10.0 mi SW 6.9 mph - 0.08 in   Mostly Cloudy
11:13 PM 44.6 °F 41.4 °F 41.0 °F 87% 29.40 in 10.0 mi West 5.8 mph - N/A   Overcast
11:33 PM 44.6 °F 40.2 °F 42.8 °F 93% 29.41 in 10.0 mi West 8.1 mph - N/A   Overcast
11:53 PM 44.6 °F 39.2 °F 39.2 °F 81% 29.42 in 10.0 mi WNW 10.4 mph 19.6 mph N/A   Overcast